This is the latest recevied weather packets stored in our database for station/object N3TJJ-2. If no packets are shown the sender has not sent any weather packets the latest 10 day(s).
| Time | Temp. | Humidity | Pressure | Rain* | Wind** | Luminosity | Snow |
|---|---|---|---|---|---|---|---|
| 1777517230 | 7.78° C | 42% | 1010.8 hPa | 2.79 mm | - | - | - |
| 1777516869 | 7.78° C | 42% | 1010.7 hPa | 2.03 mm | - | - | - |
| 1777516513 | 7.78° C | 42% | 1011 hPa | 1.78 mm | - | - | - |
| 1777516150 | 7.78° C | 42% | 1010.8 hPa | 1.27 mm | - | - | - |
| 1777515803 | 7.78° C | 42% | 1010.5 hPa | 1.02 mm | - | - | - |
| 1777515430 | 7.78° C | 42% | 1009.7 hPa | 0.76 mm | - | - | - |
| 1777515088 | 7.78° C | 43% | 1009.5 hPa | 0.76 mm | - | - | - |
| 1777514724 | 7.78° C | 43% | 1009.7 hPa | 0.51 mm | - | - | - |
| 1777514351 | 7.78° C | 43% | 1009.4 hPa | 0.51 mm | - | - | - |
| 1777513997 | 7.78° C | 43% | 1009.7 hPa | 0.51 mm | - | - | - |
| 1777513655 | 7.78° C | 43% | 1010.1 hPa | 0.51 mm | - | - | - |
| 1777513270 | 7.78° C | 43% | 1009.9 hPa | 0.51 mm | - | - | - |
| 1777512910 | 7.78° C | 43% | 1009.2 hPa | 0.51 mm | - | - | - |
| 1777512550 | 7.78° C | 43% | 1008.8 hPa | 0.51 mm | - | - | - |
| 1777512209 | 7.78° C | 43% | 1008.8 hPa | 0.51 mm | - | - | - |
| 1777511867 | 7.78° C | 43% | 1008.3 hPa | 0.76 mm | - | - | - |
| 1777511469 | 7.78° C | 43% | 1008.3 hPa | 0.76 mm | - | - | - |
| 1777511115 | 7.78° C | 43% | 1008.8 hPa | 0.76 mm | - | - | - |
| 1777510750 | 8.33° C | 43% | 1009.6 hPa | 0.51 mm | - | - | - |
| 1777510393 | 8.33° C | 43% | 1010.3 hPa | 0.51 mm | - | - | - |
| 1777510046 | 8.33° C | 43% | 1010.4 hPa | 0.51 mm | - | - | - |
| 1777509687 | 8.33° C | 43% | 1010.2 hPa | 0.76 mm | - | - | - |
| 1777509335 | 8.33° C | 43% | 1010.1 hPa | 0.76 mm | - | - | - |
| 1777508951 | 8.33° C | 43% | 1009.9 hPa | 1.02 mm | - | - | - |
| 1777508592 | 8.33° C | 44% | 1009.7 hPa | 1.02 mm | - | - | - |
* Rain latest hour (hover to see other rain measurements)
** Current wind speed in m/s (hover to see current wind gust speed)